THOR ABLESTAR DEB, 172

Orbit data source: Space-Track

THOR ABLESTAR DEB, 172 is space debris in LEO originally from a launch on Thu, 29 Jun 1961 UTC launched from the Air Force Eastern Test Range (AFETR). Debris objects in space refer to the collection of defunct objects orbiting the Earth. Examples of debris include non-operational satellites, rocket bodies, and fragments generated from explosions, collisions, or faulty payload assembly.

Loading next visibility...
Identifier
172, 1961-015AY
Orbit
LEO
Country
Flag of USUS
Related business
Manufacturer
Unknown
Mission
Spacecraft
Bus & Motor
Unknown
Mass
Unknown
Launch date (UTC)
1961-06-29 (64 years ago)
Launch vehicle
Unknown
Launch site
Air Force Eastern Test Range (AFETR)
Object type
Payload
Rocket body
Debris
Shape & HBR
Unknown shape, 0.2 m
Radar Cross Section
Small (<0.1 m²)

Expand to show TLE details & history
Last TLE update: 11 hours ago

TLE from 11 hours ago
0 THOR ABLESTAR DEB
1 00172U 61015AY  25353.04822345  .00000249  00000-0  40731-3 0  9992
2 00172  67.0663 220.5654 0134180 194.8821 164.8279 13.59113725180636
Epoch: 2025-12-19T01:09Z
TLE epoch observation values (Epoch: 2025-12-19T01:09:26.506Z)
Latitude
0.00004°
Longitude
115.31°
Altitude
1,137.132 km
Speed
7.237 km/s
True Right ascension
14h 42m 15s
True Declination
0° 00' 00"
Sunlit
Object was in daylight at epoch
Visualization orbit readout
Latitude
Unknown
Longitude
Unknown
Altitude
Unknown
Speed
Unknown
Apparent Right ascension
Unknown
Apparent Declination
Unknown
Sunlit
N/A
Visualization observer readout
Local Sidereal Time
10:51:11
Azimuth
Unknown
Elevation
Unknown
Doppler factor
Unknown
Orbital elements
Apogee altitude
1,136.803 km
Perigee altitude
937.802 km
Semi-major axis
7,415.44 km
Eccentricity
0.01342
Inclination
67.0663°
RAAN
220.5654°
Arg. of periapsis
194.8821°
True anomaly
165.2239°
Mean anomaly
164.8279°
Eccentric anomaly
165.02653°
Mean motion
3.3989 °/min
Orbital period
105.92 mins
BSTAR
0.00040731
Loading maneuver chart data...
Computing Atmospheric mass density...

Documentation

Showing up to 5 results
|